Regional Weather Roundup
Issued by NWS Newport/Morehead, NC

Home | Current Version | Previous Version | Text Only | Print | Product List | Glossary On
Versions: 1 2 3 4 5 6 7 8 9 10 11 12 13 14 15 16 17 18 19 20 21 22 23 24 25 26 27 28 29 30 31 32 33 34 35 36 37 38 39 40 41 42 43 44 45 46 47 48 49 50
000
ASUS42 KMHX 302225
RWRMHX
WEATHER ROUNDUP FOR EASTERN NORTH CAROLINA
NATIONAL WEATHER SERVICE NEWPORT/MOREHEAD CITY NC
600 PM EDT SAT APR 30 2016

NOTE: "FAIR" INDICATES FEW OR NO CLOUDS BELOW 12,000 FEET
WITH NO SIGNIFICANT WEATHER AND/OR OBSTRUCTIONS TO VISIBILITY

NCZ015>017-031-032-045>047-102-103-302300-
NORTH COAST

CITY           SKY/WX    TMP DP  RH WIND       PRES   REMARKS
EDENTON        CLOUDY    63  55  75 E6        30.17S
ELIZABETH CITY PTSUNNY   61  51  70 E15       30.18R
KITTY HAWK     CLOUDY    56  51  83 NE7       30.17F
MANTEO         NOT AVBL

$$

NCZ045>047-081-094-103-104-302300-
CENTRAL COAST

CITY           SKY/WX    TMP DP  RH WIND       PRES   REMARKS
FRISCO         CLOUDY    59  54  83 NE9G23    30.14F
SWANQUARTER    NOT AVBL

$$

NCZ095-097-098-100-101-302300-
SOUTHERN COAST

CITY           SKY/WX    TMP DP  RH WIND       PRES   REMARKS
BEAUFORT       CLOUDY    65  56  72 NE12      30.13R
CEDAR ISLAND   NOT AVBL
JACKSONVILLE   CLOUDY    68  58  70 NE10      30.12R
PINEY ISLAND   NOT AVBL
WILMINGTON     CLOUDY    65  59  81 E7        30.11S


$$

NCZ011>013-027>030-043-044-078>080-089-090>093-098-302300-
COASTAL PLAIN

CITY           SKY/WX    TMP DP  RH WIND       PRES   REMARKS
AHOSKIE        CLOUDY    60  53  76 CALM      30.17S
CLINTON        PTSUNNY   68  61  79 E6        30.11R
ELIZABETHTOWN  CLOUDY    71  62  73 E5        30.08S
GOLDSBORO      PTSUNNY   64  63  94 E9        30.11S
GREENVILLE     CLOUDY    63  55  77 E6        30.16S
HAVELOCK       CLOUDY    64  57  78 E9        30.15R
KENANSVILLE    CLOUDY    67  58  72 CALM      30.12S
KINSTON        CLOUDY    64  57  77 E9        30.14S
NEW BERN       CLOUDY    65  55  70 E8        30.15R
RICHLANDS      CLOUDY    67  59  75 NE12      30.12S
ROCKY MOUNT    CLOUDY    61  56  83 NE5       30.14F
WASHINGTON     PTSUNNY   63  54  72 E7        30.14F
WHITEVILLE     MOSUNNY   72  63  72 E10       30.07S

$$

AMZ130-135-150-152-154-156-158-170-250-252-270-ANZ085-086-088-633-658-670-302300-
MARINE OBSERVATIONS

STATION/POSITION TIME  TEMP    WIND        PRES    WAVE   SWELL
                       AIR SEA DIR/SP/G            HT/PER HT/PER
                 (UTC) (F)     (DEG/KT/KT) (MB)    (FT/S) (FT/S)
CHESAPEAKE LIGHT 2200   52      40/ 12/ 13 1023.3
64 E VA BEACH    2150   53 53   20/ 12/ 14 1021.7    7/ 9   5/ 9
DUCK             2200   53 67              1021.7
2 E DUCK         2141      59                N/A     5/ 9   2/11
OREGON INLET     2200   55 62              1021.4
13E OREGON INLT  2200      55                N/A     5/11   5/11
HATTERAS CG      2200   59 69              1020.5
DIAMOND BUOY     2150   59 73   30/ 19/ 21 1020.2    5/ 9   3/ 9
CAPE LOOKOUT     2200   62      50/ 17/ 18 1020.2
BEAUFORT LAB     2200   65 67              1019.5
30 SE NEW RVR IN 2125      68                N/A     4/ 4   2/11
27 SE WRIGHTSVLE 2208   66 70   70/ 17/ 23 1019.1
5 SE WRIGHTSVLE  2108   65 68   80/ 16/ 21 1020.0
225 S CAPE HAT   2150   71      70/ 10/ 12 1018.1    5/10   5/10
41 SE CHARLESTON 2150   75 74  100/ 12/ 14 1016.3    3/10   2/10

$$



USA.gov is the U.S. government's official web portal to all federal, state and local government web resources and services.